D8954 Weather Reports


Display with metric or nautical units.
time (UTC)temp
F
wind
direction
speed
MPH
gust
MPH
rain 1hr
in
rain 24hr
in
rain mn
in
humidity
%
barometer
mb
20260504000005 56 271 2.0 3.0 0.00 0.02 0.00 61 1013.6
20260503235505 57 269 2.0 3.0 0.00 0.02 0.00 61 1013.7
20260503234505 58 252 1.0 2.0 0.00 0.02 0.00 55 1013.7
20260503234005 58 252 0.0 2.0 0.00 0.02 0.00 55 1013.7
20260503233505 58 252 1.0 1.0 0.00 0.02 0.00 56 1013.8
20260503233006 58 252 0.0 1.0 0.00 0.02 0.00 57 1013.8
20260503232504 58 252 0.0 2.0 0.00 0.02 0.00 56 1013.8
20260503232005 58 252 1.0 2.0 0.00 0.02 0.00 55 1013.9
20260503231005 58 245 0.0 2.0 0.00 0.02 0.00 55 1013.8
20260503230504 58 229 0.0 2.0 0.00 0.02 0.00 56 1013.9
20260503230005 58 229 1.0 3.0 0.00 0.02 0.00 57 1013.9
20260503225505 58 234 0.0 2.0 0.00 0.02 0.00 56 1013.8
20260503225005 59 234 1.0 2.0 0.00 0.02 0.00 56 1013.8
20260503224005 59 238 1.0 2.0 0.00 0.02 0.00 57 1013.7
20260503223505 59 240 1.0 3.0 0.00 0.02 0.00 54 1013.6
20260503222505 59 223 0.0 2.0 0.00 0.02 0.00 56 1013.5
20260503222005 59 223 1.0 2.0 0.00 0.02 0.00 54 1013.4
20260503221505 59 224 0.0 2.0 0.00 0.02 0.00 54 1013.4
20260503221005 60 245 0.0 2.0 0.00 0.02 0.00 56 1013.4
20260503215005 60 339 1.0 6.0 0.00 0.02 0.02 53 1013.3
20260503214505 60 242 0.0 2.0 0.00 0.02 0.02 57 1013.6
20260503214005 60 230 2.0 3.0 0.00 0.02 0.02 53 1013.5
20260503213505 60 220 2.0 3.0 0.00 0.02 0.02 55 1013.4
20260503212505 60 227 1.0 3.0 0.00 0.02 0.02 55 1013.5
20260503212005 61 244 0.0 2.0 0.00 0.02 0.02 54 1013.4
20260503211505 61 249 1.0 3.0 0.00 0.02 0.02 54 1013.5
20260503211005 61 215 1.0 3.0 0.00 0.02 0.02 52 1013.5
20260503210505 61 231 2.0 3.0 0.00 0.02 0.02 51 1013.5
20260503210005 61 224 2.0 6.0 0.00 0.02 0.02 52 1013.5
20260503205005 61 228 3.0 6.0 0.00 0.02 0.02 50 1013.5
20260503204505 62 221 3.0 5.0 0.00 0.02 0.02 50 1013.4
20260503203006 62 162 2.0 9.0 0.00 0.02 0.02 49 1013.1
20260503202505 62 327 3.0 6.0 0.00 0.02 0.02 50 1013.1
20260503202005 62 282 2.0 8.0 0.00 0.02 0.02 48 1013.2
20260503201504 62 308 2.0 10.0 0.00 0.02 0.02 48 1013.2
20260503201005 62 344 2.0 5.0 0.00 0.02 0.02 49 1013.3
20260503200505 62 332 2.0 5.0 0.00 0.02 0.02 50 1013.3
20260503200005 63 1 2.0 6.0 0.00 0.02 0.02 48 1013.2
20260503195505 63 284 1.0 3.0 0.00 0.02 0.02 48 1013.2
20260503195005 63 351 2.0 10.0 0.00 0.02 0.02 49 1013.1
20260503194005 63 267 3.0 8.0 0.00 0.02 0.02 50 1013.1
20260503193505 63 306 3.0 8.0 0.00 0.02 0.02 48 1013.2
20260503192519 64 243 1.0 7.0 0.00 0.02 0.02 48 1013.1
20260503192004 64 227 3.0 8.0 0.00 0.02 0.02 48 1013.1
20260503191505 64 201 2.0 5.0 0.00 0.02 0.02 47 1013.0
20260503190005 65 204 3.0 5.0 0.00 0.02 0.02 45 1012.9
20260503185505 65 302 3.0 9.0 0.00 0.02 0.02 46 1012.8
20260503185004 66 241 4.0 10.0 0.00 0.02 0.02 46 1012.7
20260503184506 66 224 3.0 9.0 0.00 0.02 0.02 46 1012.7
20260503184005 65 32 2.0 9.0 0.00 0.02 0.02 49 1012.7
20260503183505 65 272 1.0 3.0 0.00 0.02 0.02 54 1012.4
20260503183008 65 239 1.0 3.0 0.00 0.02 0.02 55 1012.3
20260503181505 66 222 0.0 2.0 0.00 0.02 0.02 52 1012.1
20260503181005 66 222 0.0 2.0 0.00 0.02 0.02 52 1012.0
20260503180505 66 222 0.0 2.0 0.00 0.02 0.02 51 1011.9
20260503180005 66 221 0.0 2.0 0.00 0.02 0.02 51 1011.9
20260503175505 66 221 1.0 2.0 0.00 0.02 0.02 51 1012.0
20260503175005 66 221 1.0 3.0 0.00 0.02 0.02 49 1011.9
20260503174505 67 219 0.0 2.0 0.00 0.02 0.02 48 1012.0
20260503174005 66 230 1.0 3.0 0.00 0.02 0.02 51 1011.9
20260503173505 67 219 0.0 2.0 0.00 0.02 0.02 48 1011.9
20260503173006 67 219 0.0 2.0 0.00 0.02 0.02 50 1011.9
20260503172505 68 219 1.0 3.0 0.00 0.02 0.02 49 1011.9
20260503172005 68 215 2.0 3.0 0.00 0.02 0.02 46 1011.9
20260503171505 68 230 2.0 5.0 0.00 0.02 0.02 45 1011.8
20260503170505 69 213 3.0 8.0 0.00 0.02 0.02 43 1011.9
20260503151004 71 219 3.0 7.0 0.00 0.02 0.02 45 1011.8
20260503150519 71 213 3.0 10.0 0.00 0.02 0.02 46 1011.8
20260503131005 73 216 6.0 12.0 0.00 0.02 0.02 41 1012.9
20260503130504 73 225 7.0 12.0 0.00 0.02 0.02 41 1013.1
20260503110504 72 238 1.0 3.0 0.00 0.02 0.02 42 1013.7
20260503090504 68 244 3.0 8.0 0.00 0.02 0.02 46 1014.6
20260503081005 67 309 5.0 8.0 0.00 0.02 0.02 44 1014.8
20260503080505 66 317 4.0 6.0 0.00 0.02 0.02 49 1014.9
20260503072504 65 287 5.0 10.0 0.00 0.02 0.02 52 1014.9
20260503072005 65 330 2.0 8.0 0.00 0.02 0.02 53 1015.0
20260503071505 65 238 2.0 6.0 0.00 0.02 0.02 54 1015.0
20260503071004 65 237 2.0 7.0 0.00 0.02 0.02 56 1015.0
20260503055005 55 237 1.0 2.0 0.02 0.02 0.02 84 1014.6
20260503054004 55 227 0.0 2.0 0.02 0.02 0.02 83 1014.7
20260503053504 54 239 1.0 6.0 0.02 0.02 0.02 84 1014.6
20260503053005 54 204 3.0 6.0 0.02 0.02 0.02 83 1014.6
20260503052004 53 283 2.0 3.0 0.02 0.02 0.02 81 1014.3
20260503051504 54 5 2.0 7.0 0.02 0.02 0.02 79 1014.5
20260503050005 55 269 1.0 2.0 0.00 0.00 0.00 69 1014.6
20260503044504 53 271 1.0 1.0 0.00 0.00 0.00 71 1014.4
20260503044008 53 271 0.0 1.0 0.00 0.00 0.00 71 1014.3
20260503043505 54 271 1.0 2.0 0.00 0.00 0.00 70 1014.3
20260503043005 54 271 2.0 2.0 0.00 0.00 0.00 69 1014.4
20260503042507 54 271 1.0 1.0 0.00 0.00 0.00 69 1014.3
20260503041004 53 271 0.0 2.0 0.00 0.00 0.00 69 1014.3
20260503040504 53 271 1.0 2.0 0.00 0.00 0.00 69 1014.4
20260503040004 53 271 2.0 3.0 0.00 0.00 0.00 69 1014.4
20260503035504 53 271 2.0 2.0 0.00 0.00 0.00 68 1014.4
20260503035004 53 271 2.0 2.0 0.00 0.00 0.00 68 1014.4
20260503034504 54 271 2.0 2.0 0.00 0.00 0.00 68 1014.5
20260503034004 55 271 2.0 3.0 0.00 0.00 0.00 66 1014.5
20260503033504 54 272 2.0 2.0 0.00 0.00 0.00 65 1014.5
20260503033005 53 272 1.0 2.0 0.00 0.00 0.00 66 1014.6
20260503031504 52 272 0.0 2.0 0.00 0.00 0.00 68 1014.5
20260503031004 53 273 2.0 3.0 0.00 0.00 0.00 66 1014.5
20260503030504 52 269 2.0 3.0 0.00 0.00 0.00 67 1014.7
20260503030004 53 269 2.0 2.0 0.00 0.00 0.00 66 1014.7
20260503025504 53 269 2.0 2.0 0.00 0.00 0.00 66 1014.7
20260503025004 52 270 0.0 0.0 0.00 0.00 0.00 66 1014.6
20260503024504 52 270 0.0 0.0 0.00 0.00 0.00 67 1014.7
20260503024004 52 270 1.0 2.0 0.00 0.00 0.00 66 1014.8
20260503022504 52 270 0.0 2.0 0.00 0.00 0.00 67 1014.9
20260503022004 53 270 3.0 3.0 0.00 0.00 0.00 65 1014.8
20260503021504 53 269 1.0 2.0 0.00 0.00 0.00 65 1014.9
20260503020004 52 249 1.0 2.0 0.00 0.00 0.00 66 1014.9
20260503015504 52 257 0.0 2.0 0.00 0.00 0.00 66 1014.9
20260503015005 53 270 0.0 0.0 0.00 0.00 0.00 65 1014.9
20260503014504 53 270 1.0 2.0 0.00 0.00 0.00 65 1014.9
20260503014004 54 270 1.0 2.0 0.00 0.00 0.00 64 1014.9
20260503013504 54 270 1.0 2.0 0.00 0.00 0.00 64 1014.8
20260503013005 55 270 1.0 2.0 0.00 0.00 0.00 63 1014.7
20260503012504 55 270 0.0 0.0 0.00 0.00 0.00 60 1014.7
20260503012004 55 270 0.0 0.0 0.00 0.00 0.00 61 1014.8
20260503011504 55 270 0.0 0.0 0.00 0.00 0.00 62 1014.9
20260503011007 55 270 0.0 1.0 0.00 0.00 0.00 62 1014.8
20260503010504 55 270 0.0 2.0 0.00 0.00 0.00 61 1014.9
20260503010004 56 270 0.0 1.0 0.00 0.00 0.00 59 1014.9
20260503005504 57 270 0.0 2.0 0.00 0.00 0.00 56 1014.9
20260503004506 56 270 0.0 0.0 0.00 0.00 0.00 57 1015.0
20260503004005 56 270 0.0 0.0 0.00 0.00 0.00 58 1015.0
20260503003504 56 270 0.0 1.0 0.00 0.00 0.00 56 1015.2
20260503003005 55 270 0.0 2.0 0.00 0.00 0.00 59 1015.1
20260503002518 56 270 1.0 2.0 0.00 0.00 0.00 59 1015.2
20260503002004 57 270 1.0 1.0 0.00 0.00 0.00 56 1015.2
20260503001505 57 270 0.0 0.0 0.00 0.00 0.00 57 1015.3
20260503000505 57 270 0.0 0.0 0.00 0.00 0.00 55 1015.3